DL1NER Weather Reports


time (UTC)temp
C
wind
direction
speed
KPH
gust
KPH
rain 1hr
cm
rain 24hr
cm
rain mn
cm
humidity
%
barometer
mb
20260903222009 18 257 4.8 9.7 0.00 0.00 0.00 62 1020.0
20260903221056 18 259 4.8 9.7 0.00 0.00 0.00 61 1020.1
20260903220009 18 241 3.2 6.4 0.00 0.00 0.00 61 1019.9
20260903215010 18 254 1.6 4.8 0.00 0.00 0.00 59 1019.8
20260903214009 18 254 3.2 6.4 0.00 0.00 0.00 59 1019.9
20260903213009 19 230 1.6 6.4 0.00 0.00 0.00 58 1019.9
20260903212009 19 230 1.6 6.4 0.00 0.00 0.00 58 1019.9
20260903211008 19 266 1.6 4.8 0.00 0.00 0.00 57 1019.9
20260903210018 19 276 3.2 4.8 0.00 0.00 0.00 56 1020.0
20260903205008 20 277 3.2 6.4 0.00 0.00 0.00 56 1020.0
20260903204009 20 277 3.2 14.5 0.00 0.00 0.00 56 1019.9
20260903203008 20 277 3.2 14.5 0.00 0.00 0.00 56 1019.9
20260903202013 20 236 1.6 6.4 0.00 0.00 0.00 56 1019.9
20260903201013 20 236 3.2 9.7 0.00 0.00 0.00 56 1019.9
20260903200013 20 228 3.2 9.7 0.00 0.00 0.00 57 1019.7
20260903195013 20 231 3.2 9.7 0.00 0.00 0.00 57 1019.5
20260903194013 20 225 3.2 6.4 0.00 0.00 0.00 57 1019.7
20260903193013 20 228 0.0 4.8 0.00 0.00 0.00 58 1019.9
20260903192013 20 220 0.0 0.0 0.00 0.00 0.00 56 1019.8
20260903191013 20 220 0.0 0.0 0.00 0.00 0.00 56 1019.8
20260903190013 20 220 0.0 3.2 0.00 0.00 0.00 56 1019.7
20260903185013 20 220 1.6 4.8 0.00 0.00 0.00 56 1019.7
20260903184013 20 219 0.0 4.8 0.00 0.00 0.00 56 1019.5
20260903183013 21 219 1.6 4.8 0.00 0.00 0.00 55 1019.5
20260903182012 21 252 0.0 4.8 0.00 0.00 0.00 55 1019.5
20260903181012 21 261 1.6 4.8 0.00 0.00 0.00 55 1019.4
20260903180012 21 262 1.6 6.4 0.00 0.00 0.00 54 1019.4
20260903175012 21 277 3.2 6.4 0.00 0.00 0.00 54 1019.4
20260903174013 21 280 4.8 11.3 0.00 0.00 0.00 54 1019.4
20260903173012 22 238 6.4 16.1 0.00 0.00 0.00 54 1019.5
20260903172012 22 260 8.0 22.5 0.00 0.00 0.00 53 1019.5
20260903171013 22 258 14.5 29.0 0.00 0.00 0.00 53 1019.6
20260903170012 22 230 9.7 29.0 0.00 0.00 0.00 53 1019.5
20260903165012 22 256 8.0 16.1 0.00 0.00 0.00 52 1019.3
20260903164012 22 222 8.0 22.5 0.00 0.00 0.00 53 1019.2
20260903163012 22 219 6.4 17.7 0.00 0.00 0.00 52 1019.3
20260903162012 22 259 3.2 12.9 0.00 0.00 0.00 53 1019.3
20260903161012 22 232 6.4 17.7 0.00 0.00 0.00 53 1019.4
20260903160012 22 228 4.8 12.9 0.00 0.00 0.00 53 1019.3
20260903155012 22 254 6.4 16.1 0.00 0.00 0.00 54 1019.3
20260903154012 22 223 4.8 12.9 0.00 0.00 0.00 54 1019.5
20260903153012 22 223 4.8 12.9 0.00 0.00 0.00 54 1019.5
20260903152012 22 252 4.8 12.9 0.00 0.00 0.00 54 1019.5
20260903151012 22 198 6.4 14.5 0.00 0.00 0.00 52 1019.4
20260903150012 22 211 3.2 9.7 0.00 0.00 0.00 53 1019.5
20260903145011 22 231 3.2 9.7 0.00 0.00 0.00 54 1019.7
20260903144011 22 203 4.8 12.9 0.00 0.00 0.00 54 1019.7
20260903143012 22 248 4.8 12.9 0.00 0.00 0.00 56 1019.9
20260903142011 22 173 6.4 19.3 0.00 0.00 0.00 53 1019.9
20260903141011 22 209 8.0 20.9 0.00 0.00 0.00 53 1020.0
20260903140011 22 271 8.0 17.7 0.00 0.00 0.00 54 1019.9
20260903135011 22 252 8.0 19.3 0.00 0.00 0.00 53 1020.1
20260903134011 22 269 8.0 19.3 0.00 0.00 0.00 53 1020.3
20260903133011 22 257 9.7 20.9 0.00 0.00 0.00 51 1020.3
20260903132011 23 283 12.9 32.2 0.00 0.00 0.00 53 1020.3
20260903131011 23 233 9.7 20.9 0.00 0.00 0.00 51 1020.5
20260903130011 23 281 9.7 20.9 0.00 0.00 0.00 52 1020.5
20260903125011 23 238 6.4 14.5 0.00 0.00 0.00 52 1020.3
20260903124011 23 274 9.7 27.4 0.00 0.00 0.00 52 1020.2
20260903123011 23 292 9.7 22.5 0.00 0.00 0.00 52 1020.2
20260903122011 23 242 6.4 20.9 0.00 0.00 0.00 52 1020.3
20260903121011 23 227 8.0 29.0 0.00 0.00 0.00 51 1020.5
20260903120011 23 236 8.0 20.9 0.00 0.00 0.00 52 1020.5
20260903115011 23 219 8.0 19.3 0.00 0.00 0.00 53 1020.6
20260903114011 23 238 9.7 22.5 0.00 0.00 0.00 52 1020.8
20260903113011 23 280 9.7 19.3 0.00 0.00 0.00 51 1020.8
20260903112011 23 240 11.3 20.9 0.00 0.00 0.00 50 1020.9
20260903111011 23 269 3.2 16.1 0.00 0.00 0.00 52 1020.9
20260903110011 23 245 6.4 17.7 0.00 0.00 0.00 50 1021.0
20260903105011 22 188 8.0 20.9 0.00 0.00 0.00 54 1021.2
20260903104011 22 211 6.4 20.9 0.00 0.00 0.00 53 1021.3
20260903103011 21 192 3.2 9.7 0.00 0.00 0.00 55 1021.4
20260903102011 21 168 6.4 16.1 0.00 0.00 0.00 53 1021.4
20260903101011 21 212 6.4 14.5 0.00 0.00 0.00 52 1021.7
20260903100011 21 245 8.0 19.3 0.00 0.00 0.00 55 1021.8